DLH880 EDDF-EETN

Flight info

Callsign DLH880
Flight time 1h 55m
Altitude 37000
Route MARUN3W MARUN Y150 TOLGI DCT GARLU DCT BANUB Z131 GOSOT DCT EVONA DCT ETHUV DCT ADBIB DCT SULUN
Aircraft A321/M-SDE3FGHIRWY/LB1

Departure

Time 2026-05-05 16:56
Airport Frankfurt Main Airport (EDDF)

Arrival

Time 2026-05-05 18:52
Airport Lennart Meri Tallinn Airport (EETN)
Time Latitude Longitude Altitude Speed Heading
2026-05-05 16:13 50.04705 8.56842 356 ft 0 kts 294°
2026-05-05 16:42 50.04697 8.56869 362 ft 4 kts 293°
2026-05-05 16:42 50.04688 8.56902 360 ft 2 kts 295°
2026-05-05 16:43 50.04681 8.56937 361 ft 4 kts 252°
2026-05-05 16:43 50.04696 8.56965 364 ft 4 kts 205°
2026-05-05 16:43 50.04690 8.56960 364 ft 4 kts 204°
2026-05-05 16:43 50.04666 8.56943 364 ft 4 kts 204°
2026-05-05 16:44 50.04651 8.56932 359 ft 0 kts 204°
2026-05-05 16:46 50.04649 8.56931 360 ft 1 kts 204°
2026-05-05 16:46 50.04613 8.56913 356 ft 10 kts 194°
2026-05-05 16:47 50.04546 8.56889 361 ft 9 kts 193°
2026-05-05 16:47 50.04482 8.56867 359 ft 10 kts 193°
2026-05-05 16:47 50.04409 8.56845 363 ft 11 kts 188°
2026-05-05 16:47 50.04330 8.56823 360 ft 12 kts 191°
2026-05-05 16:48 50.04272 8.56869 360 ft 11 kts 92°
2026-05-05 16:48 50.04297 8.56994 363 ft 13 kts 70°
2026-05-05 16:48 50.04328 8.57123 361 ft 13 kts 70°
2026-05-05 16:48 50.04360 8.57255 366 ft 14 kts 69°
2026-05-05 16:49 50.04394 8.57402 367 ft 15 kts 70°
2026-05-05 16:49 50.04432 8.57560 367 ft 16 kts 70°
2026-05-05 16:49 50.04469 8.57712 366 ft 15 kts 70°
2026-05-05 16:49 50.04507 8.57873 367 ft 17 kts 70°
2026-05-05 16:50 50.04542 8.58018 366 ft 10 kts 69°
2026-05-05 16:50 50.04569 8.58128 364 ft 11 kts 70°
2026-05-05 16:50 50.04595 8.58235 368 ft 9 kts 69°
2026-05-05 16:50 50.04616 8.58322 374 ft 8 kts 69°
2026-05-05 16:51 50.04637 8.58410 371 ft 9 kts 69°
2026-05-05 16:51 50.04656 8.58511 371 ft 10 kts 88°
2026-05-05 16:51 50.04609 8.58580 370 ft 7 kts 159°
2026-05-05 16:51 50.04603 8.58583 369 ft 0 kts 159°
2026-05-05 16:52 50.04600 8.58585 373 ft 2 kts 159°
2026-05-05 16:52 50.04584 8.58594 371 ft 3 kts 159°
2026-05-05 16:52 50.04546 8.58616 371 ft 7 kts 159°
2026-05-05 16:52 50.04499 8.58619 371 ft 7 kts 214°
2026-05-05 16:53 50.04485 8.58578 370 ft 0 kts 248°
2026-05-05 16:55 50.04485 8.58576 370 ft 2 kts 248°
2026-05-05 16:55 50.04399 8.58225 371 ft 73 kts 250°
2026-05-05 16:56 50.04140 8.57141 371 ft 138 kts 250°
2026-05-05 16:56 50.03746 8.55533 619 ft 167 kts 249°
2026-05-05 16:56 50.03348 8.53864 1438 ft 163 kts 250°
2026-05-05 16:56 50.02963 8.52207 2028 ft 169 kts 250°
2026-05-05 16:57 50.02496 8.50430 2357 ft 187 kts 239°
2026-05-05 16:57 50.01580 8.48905 2746 ft 199 kts 215°
2026-05-05 16:57 50.00308 8.48056 3379 ft 202 kts 193°
2026-05-05 16:57 49.98912 8.47734 3992 ft 203 kts 190°
2026-05-05 16:58 49.97506 8.47422 4596 ft 205 kts 190°
2026-05-05 16:58 49.96093 8.47080 5166 ft 206 kts 195°
2026-05-05 16:58 49.94674 8.46437 5468 ft 222 kts 198°
2026-05-05 16:58 49.93121 8.45713 5730 ft 241 kts 199°
2026-05-05 16:59 49.91678 8.44415 6411 ft 243 kts 225°
2026-05-05 16:59 49.90780 8.42190 7097 ft 248 kts 252°
2026-05-05 16:59 49.90674 8.39503 7773 ft 256 kts 280°
2026-05-05 16:59 49.91444 8.36995 8430 ft 265 kts 310°
2026-05-05 17:00 49.92962 8.35338 9133 ft 272 kts 335°
2026-05-05 17:00 49.94768 8.34153 9472 ft 291 kts 336°
2026-05-05 17:00 49.96649 8.32946 9990 ft 300 kts 336°
2026-05-05 17:00 49.98634 8.31678 10577 ft 305 kts 336°
2026-05-05 17:01 50.00571 8.30435 11263 ft 307 kts 336°
2026-05-05 17:01 50.02553 8.29164 11917 ft 309 kts 337°
2026-05-05 17:01 50.04552 8.27878 12571 ft 313 kts 337°
2026-05-05 17:01 50.06575 8.26571 13216 ft 316 kts 337°
2026-05-05 17:02 50.08616 8.25246 13834 ft 319 kts 336°
2026-05-05 17:02 50.10587 8.23635 14411 ft 322 kts 326°
2026-05-05 17:02 50.12439 8.21651 14972 ft 324 kts 324°
2026-05-05 17:02 50.14288 8.19610 15562 ft 326 kts 323°
2026-05-05 17:03 50.16145 8.17556 16145 ft 329 kts 323°
2026-05-05 17:03 50.18080 8.15605 16689 ft 333 kts 335°
2026-05-05 17:03 50.20316 8.14630 17201 ft 336 kts 356°
2026-05-05 17:03 50.22658 8.14637 17748 ft 338 kts
2026-05-05 17:04 50.24988 8.15222 18252 ft 340 kts 18°
2026-05-05 17:04 50.27216 8.16389 18704 ft 343 kts 20°
2026-05-05 17:04 50.29475 8.17627 19165 ft 346 kts 20°
2026-05-05 17:04 50.31753 8.18884 19625 ft 349 kts 21°
2026-05-05 17:05 50.34056 8.20158 20069 ft 352 kts 21°
2026-05-05 17:05 50.36378 8.21443 20512 ft 355 kts 20°
2026-05-05 17:05 50.38718 8.22755 20959 ft 359 kts 21°
2026-05-05 17:05 50.41076 8.24082 21412 ft 362 kts 21°
2026-05-05 17:06 50.43404 8.25616 21856 ft 364 kts 27°
2026-05-05 17:06 50.45668 8.27414 22312 ft 366 kts 28°
2026-05-05 17:06 50.47943 8.29254 22764 ft 369 kts 28°
2026-05-05 17:06 50.50233 8.31141 23199 ft 371 kts 33°
2026-05-05 17:07 50.52372 8.33420 23577 ft 373 kts 37°
2026-05-05 17:07 50.54513 8.35809 23943 ft 375 kts 37°
2026-05-05 17:07 50.56615 8.38182 24303 ft 377 kts 38°
2026-05-05 17:07 50.58754 8.40608 24611 ft 381 kts 38°
2026-05-05 17:08 50.60913 8.43055 24912 ft 384 kts 37°
2026-05-05 17:08 50.63093 8.45525 25258 ft 387 kts 37°
2026-05-05 17:08 50.65285 8.48009 25612 ft 389 kts 37°
2026-05-05 17:08 50.67493 8.50511 25968 ft 392 kts 37°
2026-05-05 17:09 50.69715 8.53029 26334 ft 394 kts 37°
2026-05-05 17:09 50.71943 8.55563 26686 ft 396 kts 38°
2026-05-05 17:09 50.74186 8.58122 27027 ft 399 kts 38°
2026-05-05 17:09 50.76440 8.60703 27363 ft 401 kts 38°
2026-05-05 17:10 50.78678 8.63263 27685 ft 403 kts 38°
2026-05-05 17:10 50.80967 8.65938 27994 ft 404 kts 42°
2026-05-05 17:10 50.82977 8.69032 28304 ft 403 kts 52°
2026-05-05 17:10 50.84672 8.72487 28599 ft 404 kts 56°
2026-05-05 17:11 50.86373 8.76050 28900 ft 406 kts 56°
2026-05-05 17:11 50.88086 8.79629 29199 ft 408 kts 56°
2026-05-05 17:11 50.89805 8.83216 29486 ft 410 kts 56°
2026-05-05 17:11 50.91531 8.86828 29790 ft 412 kts 56°
2026-05-05 17:12 50.93267 8.90474 30061 ft 414 kts 56°
2026-05-05 17:12 50.95003 8.94119 30328 ft 416 kts 56°
2026-05-05 17:12 50.96751 8.97784 30595 ft 418 kts 56°
2026-05-05 17:12 50.97921 9.00232 30763 ft 419 kts 56°
2026-05-05 17:13 51.00281 9.05179 31041 ft 423 kts 56°
2026-05-05 17:13 51.01460 9.07658 31196 ft 424 kts 56°
2026-05-05 17:13 51.03236 9.11402 31484 ft 424 kts 56°
2026-05-05 17:13 51.05007 9.15155 31816 ft 424 kts 56°
2026-05-05 17:14 51.06774 9.18904 32143 ft 423 kts 56°
2026-05-05 17:14 51.08640 9.22530 32465 ft 425 kts 48°
2026-05-05 17:14 51.10874 9.25646 32773 ft 428 kts 37°
2026-05-05 17:14 51.13420 9.28112 33071 ft 429 kts 26°
2026-05-05 17:15 51.16212 9.29859 33298 ft 432 kts 15°
2026-05-05 17:15 51.19154 9.30942 33429 ft 437 kts 12°
2026-05-05 17:15 51.22142 9.31956 33578 ft 442 kts 11°
2026-05-05 17:15 51.25182 9.33000 33600 ft 450 kts 11°
2026-05-05 17:16 51.31364 9.35153 33608 ft 465 kts 12°
2026-05-05 17:16 51.37797 9.37400 33700 ft 478 kts 12°
2026-05-05 17:17 51.41058 9.38541 33827 ft 482 kts 12°
2026-05-05 17:17 51.44344 9.39692 33965 ft 484 kts 11°
2026-05-05 17:17 51.47650 9.40849 34157 ft 485 kts 11°
2026-05-05 17:17 51.50956 9.42005 34378 ft 485 kts 11°
2026-05-05 17:18 51.54256 9.43161 34619 ft 485 kts 11°
2026-05-05 17:18 51.57549 9.44317 34851 ft 484 kts 11°
2026-05-05 17:18 51.60843 9.45477 35118 ft 484 kts 11°
2026-05-05 17:18 51.64131 9.46642 35360 ft 483 kts 11°
2026-05-05 17:19 51.67413 9.47805 35597 ft 483 kts 10°
2026-05-05 17:19 51.70698 9.48964 35853 ft 482 kts 10°
2026-05-05 17:19 51.73967 9.50115 36083 ft 482 kts 10°
2026-05-05 17:19 51.77240 9.51273 36301 ft 481 kts 11°
2026-05-05 17:20 51.80438 9.52877 36526 ft 483 kts 21°
2026-05-05 17:20 51.83410 9.55249 36716 ft 483 kts 31°
2026-05-05 17:20 51.86166 9.58373 36834 ft 483 kts 40°
2026-05-05 17:20 51.88637 9.62044 36849 ft 483 kts 44°
2026-05-05 17:21 51.93506 9.69561 36849 ft 484 kts 44°
2026-05-05 17:22 52.00823 9.80876 36856 ft 484 kts 44°
2026-05-05 17:22 52.05702 9.88445 36858 ft 485 kts 44°
2026-05-05 17:23 52.10577 9.96043 36876 ft 486 kts 43°
2026-05-05 17:23 52.15447 10.03663 36884 ft 486 kts 43°
2026-05-05 17:24 52.20289 10.11278 36883 ft 487 kts 44°
2026-05-05 17:24 52.25162 10.18955 36889 ft 487 kts 43°
2026-05-05 17:25 52.30038 10.26647 36893 ft 487 kts 44°
2026-05-05 17:25 52.34910 10.34364 36895 ft 488 kts 43°
2026-05-05 17:26 52.39772 10.42101 36892 ft 488 kts 43°
2026-05-05 17:26 52.44635 10.49863 36870 ft 488 kts 43°
2026-05-05 17:27 52.49494 10.57637 36879 ft 488 kts 43°
2026-05-05 17:27 52.54354 10.65434 36904 ft 488 kts 43°
2026-05-05 17:28 52.59179 10.73199 36901 ft 488 kts 43°
2026-05-05 17:28 52.64034 10.81033 36866 ft 490 kts 43°
2026-05-05 17:29 52.68912 10.88924 36853 ft 493 kts 43°
2026-05-05 17:29 52.73803 10.96893 36858 ft 494 kts 43°
2026-05-05 17:30 52.78698 11.04896 36888 ft 495 kts 43°
2026-05-05 17:30 52.83582 11.12942 36897 ft 496 kts 44°
2026-05-05 17:31 52.88257 11.21253 36888 ft 497 kts 47°
2026-05-05 17:31 52.92858 11.29902 36901 ft 497 kts 47°
2026-05-05 17:32 52.97415 11.38467 36907 ft 498 kts 47°
2026-05-05 17:32 53.02036 11.47029 36905 ft 498 kts 46°
2026-05-05 17:33 53.06674 11.55587 36904 ft 498 kts 46°
2026-05-05 17:33 53.11298 11.64178 36907 ft 498 kts 47°
2026-05-05 17:34 53.15910 11.72788 36911 ft 498 kts 47°
2026-05-05 17:34 53.20482 11.81362 36911 ft 498 kts 47°
2026-05-05 17:35 53.25085 11.90032 36908 ft 498 kts 46°
2026-05-05 17:35 53.29684 11.98717 36902 ft 498 kts 47°
2026-05-05 17:36 53.34270 12.07416 36914 ft 499 kts 47°
2026-05-05 17:36 53.38856 12.16147 36927 ft 499 kts 47°
2026-05-05 17:37 53.43412 12.24837 36917 ft 499 kts 47°
2026-05-05 17:37 53.47984 12.33588 36916 ft 499 kts 47°
2026-05-05 17:38 53.52597 12.42294 36926 ft 498 kts 45°
2026-05-05 17:38 53.57368 12.50732 36924 ft 498 kts 44°
2026-05-05 17:39 53.62200 12.59110 36921 ft 498 kts 44°
2026-05-05 17:39 53.66974 12.67572 36920 ft 499 kts 44°
2026-05-05 17:40 53.71726 12.76135 36929 ft 499 kts 45°
2026-05-05 17:40 53.76465 12.84701 36925 ft 499 kts 45°
2026-05-05 17:41 53.81211 12.93278 36947 ft 500 kts 45°
2026-05-05 17:41 53.85936 13.01835 36937 ft 501 kts 45°
2026-05-05 17:42 53.90696 13.10499 36923 ft 502 kts 45°
2026-05-05 17:42 53.95452 13.19189 36929 ft 502 kts 45°
2026-05-05 17:43 54.00207 13.27909 36922 ft 503 kts 45°
2026-05-05 17:43 54.04930 13.36592 36943 ft 503 kts 45°
2026-05-05 17:44 54.09685 13.45354 36935 ft 504 kts 45°
2026-05-05 17:44 54.14440 13.54163 36934 ft 504 kts 45°
2026-05-05 17:45 54.19182 13.62996 36932 ft 505 kts 45°
2026-05-05 17:45 54.23927 13.71838 36955 ft 505 kts 45°
2026-05-05 17:46 54.28663 13.80687 36936 ft 503 kts 45°
2026-05-05 17:46 54.33355 13.89505 36935 ft 504 kts 45°
2026-05-05 17:47 54.38070 13.98418 36941 ft 505 kts 45°
2026-05-05 17:47 54.42788 14.07358 36927 ft 505 kts 45°
2026-05-05 17:48 54.47498 14.16316 36957 ft 505 kts 45°
2026-05-05 17:48 54.52203 14.25284 36953 ft 504 kts 45°
2026-05-05 17:49 54.56895 14.34265 36949 ft 503 kts 45°
2026-05-05 17:49 54.61569 14.43258 36947 ft 503 kts 45°
2026-05-05 17:50 54.66231 14.52266 36952 ft 502 kts 45°
2026-05-05 17:50 54.70869 14.61245 36933 ft 500 kts 45°
2026-05-05 17:51 54.75499 14.70239 36936 ft 500 kts 45°
2026-05-05 17:51 54.80118 14.79252 36920 ft 500 kts 45°
2026-05-05 17:52 54.84734 14.88297 36927 ft 501 kts 45°
2026-05-05 17:52 54.89347 14.97368 36952 ft 501 kts 46°
2026-05-05 17:53 54.93916 15.06408 36950 ft 501 kts 46°
2026-05-05 17:53 54.98508 15.15520 36946 ft 501 kts 46°
2026-05-05 17:54 55.03106 15.24668 36946 ft 501 kts 46°
2026-05-05 17:54 55.07689 15.33821 36942 ft 501 kts 46°
2026-05-05 17:55 55.12274 15.43006 36942 ft 501 kts 46°
2026-05-05 17:55 55.16846 15.52200 36944 ft 501 kts 46°
2026-05-05 17:56 55.21418 15.61422 36927 ft 501 kts 46°
2026-05-05 17:56 55.25980 15.70665 36940 ft 501 kts 46°
2026-05-05 17:57 55.30531 15.79931 36931 ft 500 kts 46°
2026-05-05 17:57 55.35050 15.89165 36925 ft 499 kts 46°
2026-05-05 17:58 55.39566 15.98440 36930 ft 499 kts 46°
2026-05-05 17:58 55.44037 16.07637 36936 ft 500 kts 47°
2026-05-05 17:59 55.48546 16.16960 36940 ft 500 kts 47°
2026-05-05 17:59 55.52325 16.24798 36955 ft 500 kts 47°
2026-05-05 18:00 55.56835 16.34172 36944 ft 500 kts 47°
2026-05-05 18:00 55.61333 16.43566 36944 ft 500 kts 47°
2026-05-05 18:01 55.65786 16.52913 36945 ft 500 kts 47°
2026-05-05 18:01 55.70268 16.62344 36946 ft 500 kts 47°
2026-05-05 18:02 55.74731 16.71768 36927 ft 497 kts 47°
2026-05-05 18:02 55.79167 16.81182 36929 ft 497 kts 47°
2026-05-05 18:03 55.83606 16.90644 36936 ft 497 kts 47°
2026-05-05 18:03 55.88036 17.00120 36935 ft 498 kts 48°
2026-05-05 18:04 55.92461 17.09621 36959 ft 498 kts 48°
2026-05-05 18:04 55.96852 17.19084 36937 ft 498 kts 48°
2026-05-05 18:05 56.01289 17.28690 36924 ft 497 kts 48°
2026-05-05 18:05 56.05688 17.38244 36934 ft 497 kts 48°
2026-05-05 18:06 56.10047 17.47749 36944 ft 497 kts 48°
2026-05-05 18:06 56.14420 17.57342 36941 ft 497 kts 48°
2026-05-05 18:07 56.18789 17.66944 36931 ft 497 kts 48°
2026-05-05 18:07 56.23153 17.76578 36933 ft 497 kts 48°
2026-05-05 18:08 56.27515 17.86240 36936 ft 498 kts 49°
2026-05-05 18:08 56.31868 17.95940 36940 ft 498 kts 49°
2026-05-05 18:09 56.36220 18.05673 36937 ft 499 kts 48°
2026-05-05 18:09 56.40574 18.15429 36920 ft 499 kts 49°
2026-05-05 18:10 56.44918 18.25218 36935 ft 499 kts 49°
2026-05-05 18:10 56.49261 18.35042 36949 ft 499 kts 49°
2026-05-05 18:11 56.53589 18.44874 36945 ft 499 kts 49°
2026-05-05 18:11 56.57914 18.54733 36957 ft 500 kts 49°
2026-05-05 18:12 56.62207 18.64575 36949 ft 500 kts 49°
2026-05-05 18:12 56.66521 18.74507 36939 ft 501 kts 49°
2026-05-05 18:13 56.70838 18.84460 36944 ft 501 kts 49°
2026-05-05 18:13 56.75154 18.94451 36943 ft 501 kts 49°
2026-05-05 18:14 56.79465 19.04483 36924 ft 502 kts 49°
2026-05-05 18:14 56.83773 19.14544 36937 ft 502 kts 50°
2026-05-05 18:15 56.88039 19.24558 36938 ft 502 kts 50°
2026-05-05 18:15 56.92321 19.34654 36940 ft 502 kts 50°
2026-05-05 18:16 56.96594 19.44772 36972 ft 502 kts 50°
2026-05-05 18:16 57.00872 19.54935 36926 ft 503 kts 50°
2026-05-05 18:17 57.05142 19.65128 36924 ft 504 kts 50°
2026-05-05 18:17 57.09410 19.75354 36931 ft 504 kts 50°
2026-05-05 18:18 57.13674 19.85627 36935 ft 505 kts 50°
2026-05-05 18:18 57.17942 19.95907 36916 ft 505 kts 49°
2026-05-05 18:19 57.22348 20.05958 36930 ft 504 kts 47°
2026-05-05 18:19 57.26811 20.15850 36936 ft 504 kts 47°
2026-05-05 18:20 57.31267 20.25861 36941 ft 504 kts 48°
2026-05-05 18:20 57.35674 20.35966 36941 ft 504 kts 49°
2026-05-05 18:21 57.40059 20.46115 36944 ft 504 kts 49°
2026-05-05 18:21 57.44465 20.56291 36941 ft 505 kts 49°
2026-05-05 18:22 57.48863 20.66482 36937 ft 505 kts 49°
2026-05-05 18:22 57.53256 20.76699 36937 ft 506 kts 49°
2026-05-05 18:23 57.57651 20.86952 36940 ft 506 kts 49°
2026-05-05 18:23 57.62012 20.97187 36908 ft 507 kts 49°
2026-05-05 18:24 57.66382 21.07511 36921 ft 507 kts 49°
2026-05-05 18:24 57.70756 21.17883 36930 ft 507 kts 49°
2026-05-05 18:25 57.75122 21.28245 36935 ft 508 kts 49°
2026-05-05 18:25 57.79492 21.38662 36961 ft 508 kts 49°
2026-05-05 18:26 57.83847 21.49130 36905 ft 508 kts 50°
2026-05-05 18:26 57.88205 21.59585 36925 ft 509 kts 49°
2026-05-05 18:27 57.92646 21.69947 36928 ft 509 kts 48°
2026-05-05 18:27 57.97113 21.80315 36927 ft 509 kts 48°
2026-05-05 18:28 58.03764 21.95945 36922 ft 510 kts 49°
2026-05-05 18:28 58.08178 22.06458 36897 ft 510 kts 49°
2026-05-05 18:29 58.12575 22.16977 36923 ft 510 kts 49°
2026-05-05 18:29 58.16973 22.27532 36925 ft 510 kts 49°
2026-05-05 18:30 58.21370 22.38119 36928 ft 511 kts 49°
2026-05-05 18:30 58.25757 22.48719 36909 ft 511 kts 49°
2026-05-05 18:31 58.30114 22.59289 36907 ft 511 kts 49°
2026-05-05 18:31 58.34490 22.69977 36687 ft 512 kts 50°
2026-05-05 18:32 58.36664 22.75313 36430 ft 511 kts 50°
2026-05-05 18:32 58.38847 22.80681 36168 ft 511 kts 50°
2026-05-05 18:32 58.41027 22.86043 35958 ft 512 kts 50°
2026-05-05 18:32 58.43216 22.91427 35707 ft 514 kts 49°
2026-05-05 18:33 58.45404 22.96819 35396 ft 514 kts 49°
2026-05-05 18:33 58.47604 23.02265 34473 ft 520 kts 50°
2026-05-05 18:33 58.49810 23.07756 33491 ft 523 kts 50°
2026-05-05 18:33 58.52028 23.13297 32526 ft 525 kts 50°
2026-05-05 18:34 58.54250 23.18857 31501 ft 527 kts 50°
2026-05-05 18:34 58.56488 23.24457 30568 ft 528 kts 50°
2026-05-05 18:34 58.58718 23.30045 29567 ft 529 kts 50°
2026-05-05 18:34 58.60956 23.35659 28534 ft 528 kts 50°
2026-05-05 18:35 58.63183 23.41261 27541 ft 528 kts 50°
2026-05-05 18:35 58.65407 23.46872 26459 ft 529 kts 50°
2026-05-05 18:35 58.67640 23.52521 25268 ft 533 kts 50°
2026-05-05 18:35 58.69883 23.58210 24154 ft 535 kts 50°
2026-05-05 18:36 58.72126 23.63913 23080 ft 534 kts 50°
2026-05-05 18:36 58.74356 23.69605 22216 ft 527 kts 50°
2026-05-05 18:36 58.76543 23.75208 21355 ft 520 kts 50°
2026-05-05 18:36 58.78704 23.80756 20499 ft 515 kts 50°
2026-05-05 18:37 58.80842 23.86245 19665 ft 509 kts 50°
2026-05-05 18:37 58.82956 23.91673 18862 ft 504 kts 50°
2026-05-05 18:37 58.85048 23.97064 18013 ft 499 kts 50°
2026-05-05 18:37 58.87110 24.02400 17160 ft 491 kts 50°
2026-05-05 18:38 58.89133 24.07657 16373 ft 483 kts 51°
2026-05-05 18:38 58.91122 24.12842 15595 ft 476 kts 51°
2026-05-05 18:38 58.93053 24.17875 14815 ft 469 kts 51°
2026-05-05 18:38 58.94986 24.22913 14110 ft 461 kts 51°
2026-05-05 18:39 58.96886 24.27873 13388 ft 455 kts 51°
2026-05-05 18:39 58.98756 24.32760 12706 ft 446 kts 51°
2026-05-05 18:39 59.00587 24.37557 12057 ft 438 kts 51°
2026-05-05 18:39 59.02379 24.42260 11450 ft 430 kts 52°
2026-05-05 18:40 59.04130 24.46868 11125 ft 414 kts 52°
2026-05-05 18:40 59.05792 24.51266 10999 ft 394 kts 52°
2026-05-05 18:40 59.07372 24.55465 10868 ft 376 kts 52°
2026-05-05 18:40 59.08884 24.59484 10743 ft 360 kts 52°
2026-05-05 18:41 59.10334 24.63337 10614 ft 346 kts 52°
2026-05-05 18:41 59.11740 24.67064 10346 ft 339 kts 52°
2026-05-05 18:41 59.13124 24.70739 10062 ft 333 kts 52°
2026-05-05 18:41 59.14492 24.74369 9877 ft 331 kts 52°
2026-05-05 18:42 59.15853 24.77986 9761 ft 331 kts 52°
2026-05-05 18:42 59.17209 24.81604 9625 ft 330 kts 52°
2026-05-05 18:42 59.18104 24.83997 9536 ft 329 kts 52°
2026-05-05 18:42 59.19448 24.87606 9136 ft 329 kts 52°
2026-05-05 18:43 59.20787 24.91211 8769 ft 324 kts 52°
2026-05-05 18:43 59.22097 24.94745 8420 ft 319 kts 52°
2026-05-05 18:43 59.23391 24.98243 8034 ft 316 kts 52°
2026-05-05 18:43 59.24673 25.01701 7669 ft 312 kts 52°
2026-05-05 18:44 59.25930 25.05091 7237 ft 306 kts 51°
2026-05-05 18:44 59.27165 25.08426 6680 ft 299 kts 51°
2026-05-05 18:44 59.28366 25.11671 6204 ft 290 kts 51°
2026-05-05 18:44 59.29534 25.14836 5635 ft 283 kts 51°
2026-05-05 18:45 59.30660 25.17899 5075 ft 279 kts 51°
2026-05-05 18:45 59.31783 25.20965 4736 ft 275 kts 51°
2026-05-05 18:45 59.32906 25.23960 4463 ft 270 kts 50°
2026-05-05 18:45 59.34010 25.26892 4184 ft 264 kts 50°
2026-05-05 18:46 59.35102 25.29713 4013 ft 253 kts 44°
2026-05-05 18:46 59.36514 25.31502 3979 ft 237 kts 11°
2026-05-05 18:46 59.38076 25.32039 3831 ft 224 kts
2026-05-05 18:46 59.39582 25.31914 3572 ft 211 kts 336°
2026-05-05 18:47 59.40711 25.30285 3319 ft 201 kts 302°
2026-05-05 18:47 59.41123 25.27715 3059 ft 200 kts 272°
2026-05-05 18:47 59.41138 25.24977 2797 ft 201 kts 271°
2026-05-05 18:47 59.41149 25.22273 2544 ft 199 kts 272°
2026-05-05 18:48 59.41163 25.19530 2293 ft 198 kts 272°
2026-05-05 18:48 59.41179 25.16829 2193 ft 198 kts 272°
2026-05-05 18:48 59.41194 25.14119 2199 ft 199 kts 272°
2026-05-05 18:48 59.41208 25.11403 2201 ft 198 kts 272°
2026-05-05 18:49 59.41222 25.08749 2198 ft 192 kts 272°
2026-05-05 18:49 59.41235 25.06175 2127 ft 190 kts 272°
2026-05-05 18:49 59.41247 25.03585 1909 ft 183 kts 272°
2026-05-05 18:49 59.41257 25.01204 1689 ft 170 kts 272°
2026-05-05 18:50 59.41263 24.98998 1444 ft 153 kts 272°
2026-05-05 18:50 59.41272 24.97010 1213 ft 139 kts 272°
2026-05-05 18:50 59.41291 24.95188 997 ft 129 kts 272°
2026-05-05 18:50 59.41303 24.93421 836 ft 134 kts 269°
2026-05-05 18:51 59.41302 24.91560 656 ft 137 kts 269°
2026-05-05 18:51 59.41304 24.89735 490 ft 133 kts 269°
2026-05-05 18:51 59.41309 24.87923 308 ft 131 kts 269°
2026-05-05 18:51 59.41316 24.86168 162 ft 124 kts 269°
2026-05-05 18:52 59.41323 24.84739 161 ft 81 kts 270°
2026-05-05 18:52 59.41322 24.83957 162 ft 39 kts 270°
2026-05-05 18:52 59.41322 24.83451 164 ft 36 kts 270°
2026-05-05 18:52 59.41327 24.82975 161 ft 34 kts 274°
2026-05-05 18:53 59.41389 24.82571 161 ft 26 kts 298°
2026-05-05 18:53 59.41448 24.82364 162 ft 10 kts 301°
2026-05-05 18:53 59.41488 24.82235 162 ft 12 kts 300°
2026-05-05 18:53 59.41510 24.82066 162 ft 14 kts 267°
2026-05-05 18:54 59.41506 24.81865 162 ft 16 kts 269°
2026-05-05 18:54 59.41505 24.81639 162 ft 17 kts 269°
2026-05-05 18:54 59.41505 24.81390 162 ft 19 kts 270°
2026-05-05 18:54 59.41521 24.81212 162 ft 13 kts 314°
2026-05-05 18:55 59.41612 24.81180 162 ft 15 kts 359°
2026-05-05 18:55 59.41665 24.81050 162 ft 15 kts 270°
2026-05-05 18:55 59.41665 24.80833 162 ft 17 kts 270°
2026-05-05 18:55 59.41666 24.80591 162 ft 18 kts 274°
2026-05-05 18:56 59.41732 24.80430 162 ft 12 kts 298°
2026-05-05 18:56 59.41745 24.80294 162 ft 8 kts 262°
2026-05-05 18:56 59.41712 24.80265 162 ft 4 kts 182°
2026-05-05 18:56 59.41699 24.80264 162 ft 0 kts 180°
2026-05-05 18:57 59.41693 24.80264 162 ft 1 kts 180°
2026-05-05 18:57 59.41692 24.80264 162 ft 0 kts 180°